Regional Weather Roundup
Issued by NWS Mobile, AL

Home | Current Version | Previous Version | Text Only | Print | Product List | Glossary On
Versions: 1 2 3 4 5 6 7 8 9 10 11 12 13 14 15 16 17 18 19 20 21 22 23 24 25 26 27 28 29 30 31 32 33 34 35 36 37 38
000
ASUS44 KMOB 272010
RWRMOB
REGIONAL WEATHER ROUNDUP
NATIONAL WEATHER SERVICE MOBILE AL
200 PM CST SAT DEC 27 2014

NOTE: "FAIR" INDICATES FEW OR NO CLOUDS BELOW 12,000 FEET WITH NO
      SIGNIFICANT WEATHER AND/OR OBSTRUCTIONS TO VISIBILITY.

  * THESE STATIONS ARE PART OF THE UNIVERSITY OF SOUTH ALABAMA
    MESONET AND ARE NOT UNDER NWS OR FAA QUALITY CONTROL.

ALZ061>064-272100-
COASTAL ALABAMA

CITY           SKY/WX    TMP DP  RH WIND       PRES   REMARKS
MOBILE REG APT RAIN      60  59  96 E8        30.14S FOG
BROOKLEY FIELD LGT RAIN  60  59  96 CALM      30.16S FOG
USA CAMPUS*      N/A     61  59  94 CALM      30.15R
DOG RIVER*     NOT AVBL


CITY           SKY/WX    TMP DP  RH WIND       PRES   REMARKS
MOUNT VERNON*  NOT AVBL
SARALAND*      NOT AVBL
BAY MINETTE*   NOT AVBL
LOXLEY*          N/A     59  59 100 E3        30.15F
ROBERTSDALE*     N/A     61  59  94 S3        30.15F
FAIRHOPE*      NOT AVBL
ELBERTA*         N/A     63  63 100 E7        30.13F
FOLEY*           N/A     59  55  88 NW8       30.18R
GRAND BAY*     NOT AVBL
DAUPHIN ISLND* NOT AVBL
BON SCOUR NWR* NOT AVBL
GULF SHORES    RAIN      65  65  97 E6        30.14S

$$

ALZ051>060-272100-
INTERIOR SOUTHWEST AND SOUTH CENTRAL ALABAMA

CITY           SKY/WX    TMP DP  RH WIND       PRES   REMARKS
GREENVILLE     HVY RAIN  54  52  93 CALM      30.23R FOG
EVERGREEN      RAIN      55  51  86 E6        30.22S FOG
CASTLEBERRY*   NOT AVBL
ATMORE*          N/A     55  55 100 N6        30.20F
DIXIE*           N/A     54  52  94 CALM      30.20R
ANDALUSIA/OPP  TSTM      56  48  74 N13       30.21F
ANDALUSIA*       N/A     54  50  87 N10       30.21R
FLORALA APT    LGT RAIN  59  53  80 VRB5      30.25R
FLORALA*         N/A     59  55  88 NW8       30.18R

$$

FLZ001>006-272100-
WESTERN FLORIDA PANHANDLE

CITY           SKY/WX    TMP DP  RH WIND       PRES   REMARKS
PENSACOLA      HVY RAIN  61  59  93 N5        30.17R FOG
NAS PENSACOLA  RAIN      64  62  93 NE7       30.15S FOG
MILTON         CLOUDY    59  56  89 NE5       30.17F
WHTNG S FIELD  CLOUDY    61  56  83 NE8       30.17F


CITY           SKY/WX    TMP DP  RH WIND       PRES   REMARKS
WALNUT HILL*   NOT AVBL
JAY*           NOT AVBL
DUKE FIELD     LGT RAIN  63  55  77 N6        30.19R
CRESTVIEW      CLOUDY    63  53  70 NW10      30.21R
VALPARAISO     CLOUDY    62  58  86 E1        30.18R
DESTIN         CLOUDY    63  60  90 SE8       30.17R

$$

MSZ076-079-272100-
INTERIOR SOUTHEAST MISSISSIPPI

CITY           SKY/WX    TMP DP  RH WIND       PRES   REMARKS
LEAKESVILLE*   NOT AVBL
AGRICOLA*      NOT AVBL

$$

MARINE OBSERVATIONS

STATION/POSITION TIME  TEMP    WIND        PRES    WAVE
                       AIR SEA DIR/SP/G            HT/PER
                 (UTC) (F)     (DEG/KT/KT) (MB)    (FT/S)
PASCAGOULA       2000   65     100/ 11/ 17 1019.0F
PETIT BOIS ISLND 2000   67     110/  9/ 11 1019.7F
GRAND BAY        1900   62      90/  9     1021.0S
KATRINA CUT      1900   60      50/  8     1021.3S
CEDAR POINT      1900   57      50/  9     1020.6F
E DAUPHIN ISLAND 2000   63      60/  3/  4 1020.3R
MIDDLE BAY LIGHT 1900   58      50/  6     1020.0F
USCG MOBILE BAY  2000   60 57   80/  5/  9 1019.3S
STATE DOCKS      2000   60 56              1019.9F
MEAHER PARK      1900   61      80/  3     1020.6F
WEEKS BAY        1900   65                   N/A
FORT MORGAN      2000   66     150/ 12/ 13 1019.7S
12 S ORANGE BCH  2000   69 68  140/ 10/ 12 1019.4F   4/ 6
PENSACOLA BAY    2000   64 60   30/  5/  7 1021.8R
64 S DAUPHIN ISL 2000   73 74  160/ 19/ 21 1018.7F   6/ 7

$$

SELECTED LOCATIONS ACROSS THE REGION

CITY           SKY/WX    TMP DP  RH WIND       PRES   REMARKS
NEW ORLEANS    CLOUDY    70  67  90 S14       30.05F FOG
GULFPORT       LGT RAIN  65  64  97 SE10      30.09F FOG
PASCAGOULA AP  LGT RAIN  65  64  97 SE12      30.10F FOG
PASCAGOULA*      N/A     63  63 100 NE5       30.11F
HATTIESBURG    LGT RAIN  62  61  96 E8        30.11F FOG
LAUREL         CLOUDY    57  55  94 SE9       30.11F
MERIDIAN       CLOUDY    55  53  93 SE6       30.13S
JACKSON        CLOUDY    62  59  90 S10       30.08F
MONTGOMERY     RAIN      54  50  87 SE7       30.21R FOG
TROY           RAIN      60  55  83 W5        30.22R
KINSTON*       NOT AVBL
GENEVA*          N/A     66  54  63 CALM      30.18F
ASHFORD*         N/A     54  50  87 N10       30.21R
DOTHAN         PTSUNNY   69  51  52 E5        30.19S
PANAMA CITY    CLOUDY    68  55  63 S3        30.16S

$$



USA.gov is the U.S. government's official web portal to all federal, state and local government web resources and services.